Manila/Aquino, Philippines

7:18 PM PHT on December 10, 2016 (GMT +0800)
Ninoy Aquino International

Weather History for RPLL - December, 2016

Change the Weather History Date:

Saturday, December 10, 2016

  Actual Average Record
Temperature  
Mean Temperature 83 °F -  
Max Temperature 87 °F 84 °F 92 °F (2015)
Min Temperature 79 °F 72 °F 73 °F (2004)
Cooling Degree Days 18    
Growing Degree Days 33 (Base 50)    
Moisture  
Dew Point 75 °F    
Average Humidity 74    
Maximum Humidity 94    
Minimum Humidity 53    
Precipitation  
Precipitation 0.00 in 0.05 in - ()
Sea Level Pressure  
Sea Level Pressure 29.77 in    
Wind  
Wind Speed 4 mph ()    
Max Wind Speed 8 mph    
Max Gust Speed -    
Visibility 6.2 miles    
Events      
Averages and records for this station are not official NWS values.
T = Trace of Precipitation, MM = Missing Value Source: Averaged Metar Reports

Daily Weather History Graph

Daily Weather History Graph

Search for Another Location

Airport or City:

Trip Planner

Search our weather history database for the weather conditions in past years. The results will help you decide how hot, cold, wet, or windy it might be!

Date:

Astronomy

Dec. 10, 2016 Rise Set
Actual Time 6:10 AM PHT 5:27 PM PHT
Civil Twilight 5:46 AM PHT 5:50 PM PHT
Nautical Twilight 5:20 AM PHT 6:17 PM PHT
Astronomical Twilight 4:53 AM PHT 6:43 PM PHT
Moon 2:14 PM PHT 1:58 AM PHT
Length of Visible Light 12h 03m
Length of Day
11h 17m
Waxing Gibbous, 80% of the Moon is Illuminated
Today
Waxing Gibbous
Dec 14
Full
Dec 21
Last Quarter
Dec 29
New
Jan 6
First Quarter

Hourly Weather History & Observations

Time (PHT) Temp. Heat Index Dew Point Humidity Pressure Visibility Wind Dir Wind Speed Gust Speed Precip Events Conditions
12:00 AM 82.4 °F 89.5 °F 75.2 °F 79% 29.77 in 6.2 mi Variable 4.6 mph - N/A   Mostly Cloudy
1:00 AM 80.6 °F 86.2 °F 75.2 °F 84% 29.77 in 6.2 mi ENE 3.5 mph - N/A   Mostly Cloudy
2:00 AM 81 °F - 75 °F 78% 29.77 in 6 mi SSE 2.2 mph - -   Haze
3:00 AM 80.6 °F 86.2 °F 75.2 °F 84% 29.77 in 6.2 mi Variable 3.5 mph - N/A   Mostly Cloudy
4:00 AM 80.6 °F 86.2 °F 75.2 °F 84% 29.77 in 6.2 mi SE 4.6 mph - N/A   Mostly Cloudy
5:00 AM 80 °F - 78 °F 91% 29.78 in 6 mi South 2.2 mph - -   Haze
5:00 AM 80.6 °F 88.1 °F 78.8 °F 94% 29.77 in 6.2 mi South 3.5 mph - N/A   Scattered Clouds
6:00 AM 80.6 °F 88.1 °F 78.8 °F 94% 29.80 in 6.2 mi SSE 3.5 mph - N/A   Scattered Clouds
7:00 AM 80.6 °F 88.1 °F 78.8 °F 94% 29.80 in 6.2 mi SSE 3.5 mph - N/A   Scattered Clouds
8:00 AM 83 °F - 77 °F 76% 29.83 in 6 mi SSE 4.5 mph - -   Haze
8:00 AM 84.2 °F 94.1 °F 77.0 °F 79% 29.83 in 6.2 mi Variable 3.5 mph - N/A   Scattered Clouds
9:00 AM 86.0 °F 95.1 °F 75.2 °F 70% 29.83 in 6.2 mi Variable 4.6 mph - N/A   Scattered Clouds
10:00 AM 87.8 °F 95.6 °F 73.4 °F 62% 29.80 in 6.2 mi Variable 4.6 mph - N/A   Scattered Clouds
11:00 AM 87 °F - 72 °F 53% 29.81 in 6 mi SSW 4.5 mph - -   Haze
11:00 AM 87.8 °F 93.8 °F 71.6 °F 58% 29.80 in 6.2 mi SSW 4.6 mph - N/A   Mostly Cloudy
12:00 PM 86.0 °F 95.1 °F 75.2 °F 70% 29.77 in 6.2 mi WNW 6.9 mph - N/A   Mostly Cloudy
1:00 PM 86.0 °F 95.1 °F 75.2 °F 70% 29.74 in 6.2 mi West 6.9 mph - N/A   Mostly Cloudy
2:00 PM 87 °F - 74 °F 58% 29.73 in 6 mi West 6.7 mph - -   Haze
2:00 PM 86.0 °F 93.4 °F 73.4 °F 66% 29.71 in 6.2 mi West 6.9 mph - N/A   Scattered Clouds
3:00 PM 87.8 °F 97.6 °F 75.2 °F 66% 29.71 in 6.2 mi West 5.8 mph - N/A   Mostly Cloudy
4:00 PM 87.8 °F 95.6 °F 73.4 °F 62% 29.71 in 6.2 mi ESE 8.1 mph - N/A   Mostly Cloudy
5:00 PM 85 °F - 75 °F 66% 29.74 in 6 mi ESE 4.5 mph - -   Haze
5:00 PM 86.0 °F 95.1 °F 75.2 °F 70% 29.74 in 6.2 mi ESE 4.6 mph - N/A   Mostly Cloudy
6:00 PM 84.2 °F 94.1 °F 77.0 °F 79% 29.74 in 6.2 mi SE 4.6 mph - N/A   Mostly Cloudy